When you browse on this site, cookies collect data to enhance your experience and personalize the content and advertising you see.
Visit our Privacy Policy to learn more. By continuing to use the site, you agree to this use of cookies and data.
  • In Romania
  • List of Countries
  • For 7 days
  • Water Temperature
  • Satellite Maps
  • Weather Map
  • Weather Widgets
  • user-avatar
    Login

    Hourly Weather Fier

    Today, 17 January, Thursday

    Time Temperature Precipitation Wind Pressure Humidity
    00:00 +4°C° 0 mm 2 mps 766 mmHg 63%
    01:00 +4°C° 0 mm 2 mps 766 mmHg 63%
    02:00 +4°C° 0 mm 2 mps 765 mmHg 63%
    03:00 +4°C° 0 mm 2 mps 765 mmHg 63%
    04:00 +3°C° 0 mm 3 mps 765 mmHg 64%
    05:00 +3°C° 0 mm 3 mps 765 mmHg 63%
    06:00 +3°C° 0 mm 3 mps 765 mmHg 63%
    07:00 +3°C° 0 mm 3 mps 765 mmHg 63%
    08:00 +5°C° 0 mm 3 mps 765 mmHg 59%
    09:00 +8°C° 0 mm 3 mps 765 mmHg 55%
    10:00 +10°C° 0 mm 3 mps 764 mmHg 51%
    11:00 +12°C° 0 mm 2 mps 764 mmHg 48%
    12:00 +13°C° 0 mm 2 mps 764 mmHg 45%
    13:00 +14°C° 0 mm 2 mps 764 mmHg 42%
    14:00 +13°C° 0 mm 2 mps 763 mmHg 47%
    15:00 +12°C° 0 mm 2 mps 763 mmHg 51%
    16:00 +12°C° 0 mm 2 mps 763 mmHg 56%
    17:00 +10°C° 0 mm 2 mps 763 mmHg 59%
    18:00 +9°C° 0 mm 3 mps 763 mmHg 61%
    19:00 +7°C° 0 mm 3 mps 763 mmHg 64%
    20:00 +6°C° 0 mm 4 mps 763 mmHg 65%
    21:00 +6°C° 0 mm 4 mps 763 mmHg 67%
    22:00 +5°C° 0 mm 4 mps 763 mmHg 68%
    23:00 +5°C° 0 mm 4 mps 763 mmHg 70%

    Tomorrow, 18 January, Friday

    Time Temperature Precipitation Wind Pressure Humidity
    00:00 +5°C° 0 mm 4 mps 763 mmHg 71%
    01:00 +5°C° 0 mm 4 mps 763 mmHg 73%
    02:00 +6°C° 0 mm 4 mps 762 mmHg 75%
    03:00 +6°C° 0 mm 4 mps 762 mmHg 77%
    04:00 +6°C° 0 mm 4 mps 762 mmHg 79%
    05:00 +6°C° 0.1 mm 4 mps 762 mmHg 79%
    06:00 +6°C° 0.1 mm 4 mps 761 mmHg 80%
    07:00 +7°C° 0.1 mm 4 mps 761 mmHg 81%
    08:00 +7°C° 0.5 mm 4 mps 761 mmHg 81%
    09:00 +8°C° 0.5 mm 5 mps 761 mmHg 81%
    10:00 +8°C° 0.5 mm 5 mps 761 mmHg 80%
    11:00 +9°C° 0.3 mm 5 mps 761 mmHg 78%
    12:00 +10°C° 0.3 mm 5 mps 761 mmHg 76%
    13:00 +12°C° 0.3 mm 5 mps 760 mmHg 73%
    14:00 +10°C° 0.1 mm 5 mps 760 mmHg 74%
    15:00 +10°C° 0.1 mm 5 mps 760 mmHg 75%
    16:00 +11°C° 0.1 mm 4 mps 760 mmHg 76%
    17:00 +10°C° 0.1 mm 4 mps 760 mmHg 78%
    18:00 +8°C° 0.1 mm 4 mps 760 mmHg 79%
    19:00 +7°C° 0.1 mm 4 mps 760 mmHg 81%
    20:00 +7°C° 0.1 mm 4 mps 760 mmHg 82%
    21:00 +7°C° 0.1 mm 4 mps 761 mmHg 82%
    22:00 +7°C° 0.1 mm 4 mps 761 mmHg 82%
    23:00 +7°C° 0 mm 4 mps 761 mmHg 83%

    Day after tomorrow, 19 January, Saturday

    Time Temperature Precipitation Wind Pressure Humidity
    00:00 +7°C° 0 mm 4 mps 760 mmHg 83%
    01:00 +7°C° 0 mm 4 mps 760 mmHg 83%
    02:00 +7°C° 0 mm 4 mps 760 mmHg 83%
    03:00 +7°C° 0 mm 4 mps 760 mmHg 82%
    04:00 +7°C° 0 mm 4 mps 760 mmHg 82%
    05:00 +6°C° 0 mm 4 mps 760 mmHg 82%
    06:00 +6°C° 0 mm 4 mps 760 mmHg 81%
    07:00 +6°C° 0 mm 4 mps 760 mmHg 81%
    08:00 +8°C° 0 mm 4 mps 760 mmHg 76%
    09:00 +10°C° 0 mm 4 mps 760 mmHg 71%
    10:00 +12°C° 0 mm 3 mps 760 mmHg 66%
    11:00 +13°C° 0 mm 4 mps 760 mmHg 66%
    12:00 +13°C° 0 mm 4 mps 759 mmHg 65%
    13:00 +14°C° 0 mm 4 mps 759 mmHg 64%
    14:00 +13°C° 0.3 mm 4 mps 759 mmHg 69%
    15:00 +12°C° 0.3 mm 4 mps 759 mmHg 73%
    16:00 +11°C° 0.3 mm 4 mps 759 mmHg 78%
    17:00 +11°C° 0.1 mm 4 mps 759 mmHg 79%
    18:00 +10°C° 0.1 mm 4 mps 759 mmHg 79%
    19:00 +10°C° 0.1 mm 3 mps 759 mmHg 80%
    20:00 +10°C° 0.4 mm 3 mps 759 mmHg 80%
    21:00 +10°C° 0.4 mm 3 mps 759 mmHg 80%
    22:00 +10°C° 0.4 mm 3 mps 759 mmHg 80%
    23:00 +9°C° 1 mm 3 mps 759 mmHg 80%

    20 January, Sunday

    Time Temperature Precipitation Wind Pressure Humidity
    00:00 +9°C° 1 mm 3 mps 759 mmHg 81%
    01:00 +9°C° 1 mm 3 mps 759 mmHg 81%
    02:00 +9°C° 0.5 mm 3 mps 759 mmHg 81%
    03:00 +9°C° 0.5 mm 3 mps 759 mmHg 81%
    04:00 +9°C° 0.5 mm 3 mps 759 mmHg 80%
    05:00 +8°C° 0.4 mm 3 mps 759 mmHg 80%
    06:00 +8°C° 0.4 mm 3 mps 759 mmHg 80%
    07:00 +8°C° 0.4 mm 3 mps 759 mmHg 80%
    08:00 +9°C° 0.3 mm 3 mps 759 mmHg 77%
    09:00 +11°C° 0.3 mm 3 mps 760 mmHg 73%
    10:00 +13°C° 0.3 mm 2 mps 760 mmHg 69%
    11:00 +12°C° 0.6 mm 3 mps 760 mmHg 66%
    12:00 +13°C° 0.6 mm 3 mps 760 mmHg 63%
    13:00 +13°C° 0.6 mm 3 mps 759 mmHg 60%
    14:00 +14°C° 0.2 mm 2 mps 759 mmHg 64%
    15:00 +13°C° 0.2 mm 2 mps 759 mmHg 68%
    16:00 +13°C° 0.2 mm 2 mps 759 mmHg 71%
    17:00 +12°C° 0.1 mm 1 mps 760 mmHg 74%
    18:00 +11°C° 0.1 mm 1 mps 760 mmHg 77%
    19:00 +9°C° 0.1 mm 0 mps 761 mmHg 80%
    20:00 +10°C° 0 mm 1 mps 761 mmHg 81%
    21:00 +8°C° 0 mm 2 mps 761 mmHg 82%
    22:00 +8°C° 0 mm 2 mps 761 mmHg 84%
    23:00 +8°C° 0 mm 2 mps 761 mmHg 83%

    21 January, Monday

    Time Temperature Precipitation Wind Pressure Humidity
    00:00 +8°C° 0 mm 2 mps 761 mmHg 83%
    01:00 +7°C° 0 mm 3 mps 761 mmHg 83%
    02:00 +7°C° 0 mm 3 mps 761 mmHg 82%
    03:00 +7°C° 0 mm 3 mps 761 mmHg 80%
    04:00 +7°C° 0 mm 3 mps 761 mmHg 79%
    05:00 +7°C° 0 mm 3 mps 761 mmHg 78%
    06:00 +7°C° 0 mm 3 mps 761 mmHg 77%
    07:00 +7°C° 0 mm 3 mps 761 mmHg 76%
    08:00 +8°C° 0 mm 3 mps 761 mmHg 72%
    09:00 +9°C° 0 mm 3 mps 761 mmHg 67%
    10:00 +11°C° 0 mm 4 mps 761 mmHg 63%
    11:00 +12°C° 0 mm 4 mps 761 mmHg 60%
    12:00 +13°C° 0 mm 4 mps 760 mmHg 56%
    13:00 +14°C° 0 mm 4 mps 760 mmHg 53%
    14:00 +14°C° 0 mm 4 mps 760 mmHg 57%
    15:00 +13°C° 0 mm 4 mps 759 mmHg 62%
    16:00 +13°C° 0 mm 4 mps 759 mmHg 66%
    17:00 +12°C° 0.1 mm 4 mps 759 mmHg 69%
    18:00 +11°C° 0.1 mm 4 mps 759 mmHg 72%
    19:00 +10°C° 0.1 mm 4 mps 759 mmHg 75%
    20:00 +9°C° 0.4 mm 5 mps 759 mmHg 76%
    21:00 +9°C° 0.4 mm 5 mps 758 mmHg 77%
    22:00 +9°C° 0.4 mm 5 mps 758 mmHg 78%
    23:00 +8°C° 1.1 mm 5 mps 758 mmHg 79%

    22 January, Tuesday

    Time Temperature Precipitation Wind Pressure Humidity
    00:00 +8°C° 1.1 mm 5 mps 757 mmHg 80%
    01:00 +8°C° 1.1 mm 5 mps 756 mmHg 80%
    02:00 +8°C° 2.1 mm 5 mps 756 mmHg 81%
    03:00 +8°C° 2.1 mm 6 mps 755 mmHg 82%
    04:00 +8°C° 2.1 mm 6 mps 755 mmHg 83%
    05:00 +9°C° 1.1 mm 6 mps 754 mmHg 84%
    06:00 +9°C° 1.1 mm 6 mps 754 mmHg 84%
    07:00 +9°C° 1.1 mm 6 mps 754 mmHg 84%
    08:00 +9°C° 1 mm 6 mps 754 mmHg 83%
    09:00 +10°C° 1 mm 7 mps 754 mmHg 81%
    10:00 +10°C° 1 mm 7 mps 754 mmHg 80%
    11:00 +11°C° 1.2 mm 6 mps 753 mmHg 80%
    12:00 +11°C° 1.2 mm 6 mps 753 mmHg 80%
    13:00 +11°C° 1.2 mm 6 mps 752 mmHg 80%
    14:00 +12°C° 1.1 mm 5 mps 752 mmHg 81%
    15:00 +12°C° 1.1 mm 4 mps 752 mmHg 81%
    16:00 +12°C° 1.1 mm 3 mps 752 mmHg 82%
    17:00 +12°C° 0.7 mm 2 mps 752 mmHg 84%
    18:00 +12°C° 0.7 mm 2 mps 752 mmHg 85%
    19:00 +11°C° 0.7 mm 1 mps 752 mmHg 87%
    20:00 +11°C° 0.5 mm 1 mps 752 mmHg 87%
    21:00 +10°C° 0.5 mm 1 mps 752 mmHg 88%
    22:00 +10°C° 0.5 mm 1 mps 752 mmHg 88%
    23:00 +10°C° 0.7 mm 1 mps 752 mmHg 89%
    Show more